Location: G�ndlingen
(48.0142°N, 7.6396°E)
Time: 02:29:17
(UTC+00:00)

Cosmos 2084 - Visible Passes

Search period start: 23 October 2020 00:00
Search period end: 02 November 2020 00:00
Orbit: 567 x 616 km, 62.8° (Epoch: 21 October)

Date Brightness Start Highest point End Pass type
(mag) Time Alt. Az. Time Alt. Az. Time Alt. Az.
23 Oct 6.7 04:42:18 10° SE 04:44:14 13° ESE 04:46:09 10° E visible
24 Oct 6.2 04:48:59 10° SSE 04:52:15 21° ESE 04:55:33 10° ENE visible
25 Oct 5.3 04:56:27 10° S 05:00:21 34° ESE 05:04:20 10° ENE visible
26 Oct 4.2 05:04:19 10° SSW 05:08:32 56° SE 05:12:52 10° NE visible
27 Oct 6.4 03:35:54 10° SE 03:37:59 13° ESE 03:40:05 10° E visible
27 Oct 3.5 05:12:28 10° SW 05:16:49 90° N 05:21:15 10° NE visible
28 Oct 5.8 03:42:41 10° SSE 03:46:00 22° ESE 03:49:23 10° ENE visible
28 Oct 3.6 05:20:53 10° SW 05:25:10 58° NW 05:29:33 10° NE visible
29 Oct 4.9 03:51:36 19° S 03:54:07 35° ESE 03:58:08 10° NE visible
29 Oct 4.1 05:29:30 10° WSW 05:33:36 39° NW 05:37:47 10° NNE visible
30 Oct 3.9 04:00:43 35° S 04:02:18 59° SE 04:06:39 10° NE visible
31 Oct 6.5 02:33:01 12° E 02:33:01 12° E 02:33:59 10° E visible
31 Oct 3.3 04:09:36 53° SW 04:10:35 87° NW 04:15:01 10° NE visible
01 Nov 6.2 02:41:45 17° E 02:41:45 17° E 02:43:13 10° ENE visible
01 Nov 3.6 04:18:20 51° WNW 04:18:57 56° NW 04:23:19 10° NE visible
